Location: Eimen
(51.8766°N, 9.7806°E)
Time: 17:26:43
(UTC+00:00)

IRAS Rocket - Pass Details

Date: 23 May 2024
Orbit: 846 x 877 km, 100.1° (Epoch: 23 June)

Event Time Altitude Azimuth Distance (km) Brightness Sun altitude
Rises 02:13:54 0° 18° (NNE) 3,441 8.8 -7.9°
Reaches altitude 10° 02:16:17 10° 20° (NNE) 2,496 8.0 -7.7°
Maximum altitude 02:21:50 77° 107° (ESE) 879 4.4 -7.1°
Drops below altitude 10° 02:27:18 10° 193° (SSW) 2,466 6.1 -6.5°
Enters shadow 02:28:52 - 194° (SSW) 3,081 6.6 -6.3°
